Tracking 18840 objects as of 19-November-2017
HD Live streaming from Space Station
objects crossing your sky now

LEMUR 2 ANUBHAVTHAKUR"

Track LEMUR 2 ANUBHAVTHAKUR" now!
10-day predictions
LEMUR 2 ANUBHAVTHAKUR" is classified as:


NORAD ID: 41873
Int'l Code: 2016-062E
Perigee: 503.3 km
Apogee: 510.8 km
Inclination: 51.6 °
Period: 94.6 minutes
Semi major axis: 6878 km
RCS: Unknown
Launch date: October 17, 2016
Source: (USA)
Launch site: WALLOPS ISLAND (WLPIS)
aabbcc
Your satellite tracking list
Your tracking list is empty




NASA's NSSDC Master Catalog

Two Line Element Set (TLE):
1 41873U 16062E   17322.62204950 +.00000303 +00000-0 +27490-4 0  9993
2 41873 051.6410 074.5067 0005471 072.3246 287.8345 15.21962939054432
Source of the keplerian elements: AFSPC